Regional Weather Roundup
Issued by NWS Upton, NY

Current Version | Previous Version | Text Only | Print | Product List | Glossary On
Versions: 1 2 3 4 5 6 7 8 9 10 11 12 13 14 15 16 17 18 19 20 21 22 23 24 25 26 27 28 29 30 31 32 33 34 35 36 37 38 39 40 41 42 43 44 45 46 47 48 49 50
000
ASUS41 KOKX 060708
RWROKX

REGIONAL WEATHER ROUNDUP
NATIONAL WEATHER SERVICE NEW YORK NY
300 AM EDT WED MAY 06 2015

NOTE: "FAIR" INDICATES FEW OR NO CLOUDS BELOW 12,000 FEET WITH NO
SIGNIFICANT WEATHER AND/OR OBSTRUCTIONS TO VISIBILITY.

NYZ071-072-176-178-NJZ106-104-060800-
NEW YORK CITY METRO AREA


CITY           SKY/WX    TMP DP  RH WIND       PRES   REMARKS
CENTRAL PARK   CLOUDY    70  42  36 VRB6      30.22S
LAGUARDIA APRT CLOUDY    69  44  40 N3        30.19S
KENNEDY INTL   CLOUDY    67  51  56 N8        30.19S
NEWARK/LIBERTY MOCLDY    69  45  41 N9        30.19S
BRNX BOT. GARD   N/A     68  43  40 CALM      30.21S
TETERBORO      CLOUDY    69  42  37 N7        30.18F
$$

NYZ177-179-078>081-060800-
LONG ISLAND NEW YORK

CITY           SKY/WX    TMP DP  RH WIND       PRES   REMARKS
FARMINGDALE    CLOUDY    63  52  67 N6        30.18S
ISLIP          CLOUDY    61  53  75 NE3       30.17R
SHIRLEY        CLOUDY    59  52  77 N5        30.19R
WESTHAMPTON    CLOUDY    57  52  83 NE6       30.19S
MONTAUK POINT    N/A     55  48  77 CALM      30.20F
$$

NYZ052-065-067-060800-
HUDSON VALLEY

CITY           SKY/WX    TMP DP  RH WIND       PRES   REMARKS
WHITE PLAINS   CLOUDY    67  36  31 N9        30.19S
NEWBURGH       CLOUDY    64  41  42 E12       30.23S
MONTGOMERY     CLOUDY    60  50  69 CALM      30.22S
POUGHKEEPSIE   CLOUDY    60  49  66 CALM      30.22S
ALBANY         MOCLDY    59  37  44 N3        30.26S
$$

NJZ001-105-106-008-010-013-015-019>022-104-060800-
NEW JERSEY

CITY           SKY/WX    TMP DP  RH WIND       PRES   REMARKS
NEWARK/LIBERTY MOCLDY    69  45  41 N9        30.19S
TETERBORO      CLOUDY    69  42  37 N7        30.18F
CALDWELL       CLOUDY    65  49  56 CALM      30.21S
MORRISTOWN     CLOUDY    63  50  63 CALM      30.20S
SOMERVILLE     MOCLDY    64  58  80 CALM      30.18S
SUSSEX         CLOUDY    61  52  72 CALM      30.23S
ANDOVER          N/A     62  52  69 CALM      30.22S
TRENTON        MOCLDY    68  56  65 NW3       30.18F
MILLVILLE      LGT RAIN  64  63  96 W5        30.20F
ATLANTIC CITY    N/A     66  63  90 CALM      30.19F
WRIGHTSTOWN    CLOUDY    67  61  80 W3        30.16F
TOMS RIVER     CLOUDY    66  61  82 CALM      30.16F
BELMAR         MOCLDY    66  55  68 NW6       30.19S
$$

PAZ047>061-062-071-060800-
EASTERN PENNSYLVANIA

CITY           SKY/WX    TMP DP  RH WIND       PRES   REMARKS
PHILADELPHIA   MOCLDY    67  62  84 CALM      30.19F
ALLENTOWN      CLOUDY    66  56  70 NE3       30.21R
SCRANTON       LGT RAIN  61  52  72 N5        30.24F
$$

CTZ002-004>006-009-010-012-RIZ004-006-007-MAZ004-011-015-060800-
SOUTHERN NEW ENGLAND
 IN CT

CITY           SKY/WX    TMP DP  RH WIND       PRES   REMARKS
BRADLEY INTL   MOCLDY    59  40  49 N7        30.21S
HARTFORD       CLOUDY    63  42  46 VRB7      30.20S
DANBURY        CLOUDY    67  34  29 N7        30.22S
WTRBRY/OXFORD    N/A     63  37  39 N9        30.23R
BRIDGEPORT     CLOUDY    57  51  80 E3        30.19S
MERIDEN        CLOUDY    65  47  52 N6        30.19F
NEW HAVEN      CLOUDY    55  50  83 S5        30.19S
CHESTER        FAIR      61  52  72 NE3       30.20S
GROTON         CLOUDY    59  50  72 NE3       30.18F
WILLIMANTIC    CLOUDY    58  52  80 CALM      30.21F

 IN RI

CITY           SKY/WX    TMP DP  RH WIND       PRES   REMARKS
PROVIDENCE     CLOUDY    56  50  80 N6        30.21S
BLOCK ISLAND   CLOUDY    54  46  76 NE5       30.19S
WESTERLY       CLOUDY    57  51  80 CALM      30.19F

 IN MA

CITY           SKY/WX    TMP DP  RH WIND       PRES   REMARKS
BOSTON         PTCLDY    57  52  83 N7        30.23F
WORCESTER      MOCLDY    59  32  36 N13G20    30.25R
WESTFIELD      MOCLDY    55  40  56 N6        30.23S
PROVINCETOWN   PTCLDY    48  45  87 NE3       30.23S
NANTUCKET      PTCLDY    50  46  86 NE7       30.19F
$$

ANZ330-335-338-340-345-350-353-355-060800-
COASTAL MARINE OBSERVATIONS


STATION/POSITION TIME  SKY/WX   TEMP    WIND        PRES    VSBY  WAVE
                                AIR SEA DIR/SP/G                  HT/PER
                 (UTC)          (F)     (DEG/KT/KT) (MB)    (MI)  (FT/S)
NY HARB ENTRANCE 0650            57 52  310/  4/  6 1021.8          3/ 5
4S FIRE IS       0603               52                N/A           3/ 6
20S FIRE ISLAND  0650            54 49  350/  6/  8 1021.8          3/ 6
GREAT SOUTH BAY  0600            60 60   CALM  /  2   N/A
23SW MTP         0650            51 49  120/  4/  6 1021.8          3/ 6
HUDSON CANYON    NOT AVBL
KINGS POINT      0600               48                N/A
EASTERN LI SOUND 0600            51     130/  4/  8   N/A
ROBBINS REEF     0606            70     360/  9/ 10 1021.0
$$


>>>>>>>>>>>>>>>>>>>>>>>>>>>> KEY <<<<<<<<<<<<<<<<<<<<<<<<<<<
>                                                          <
>     SKY/WX - SKY CONDITION/PRESENT WEATHER               <
>     TMP    - TEMPERATURE IN FAHRENHEIT                   <
>     DP     - DEWPOINT IN FAHRENHEIT                      <
>     RH     - RELATIVE HUMIDITY IN PERCENT                <
>     WIND   - DIRECTION AND SPEED IN MPH                  <
>     PRES   - MEAN SEA LEVEL PRESSURE IN INCHES OF HG     <
>     WCI    - WIND CHILL INDEX                            <
>     VSB    - VISIBILITY IN MILES                         <
>     HX     - HEAT INDEX                                  <
>     TC     - TEMPERATURE IN CELSIUS                      <
>     VRB    - VARIABLE WIND DIRECTION                     <
>                                                          <
>>>>>>>>>>>>>>>>>>>>>>>>>>>> KEY <<<<<<<<<<<<<<<<<<<<<<<<<<<




USA.gov is the U.S. government's official web portal to all federal, state and local government web resources and services.